Flag for France Weather past 2 weeks in Strasbourg, France

Now
63 °F

Mostly cloudy.


Feels Like: 63 °F
Forecast: 53 / 60 °F
Wind: 9 mph from Northwest

Location: Strasbourg Airport

Current Time: May 25, 2015 at 5:43:07 PM

Latest Report: May 25, 2015 at 5:00 PM


Visibility: N/A

Pressure: 29.95 "Hg

Humidity: 73%

Dew point: 54 °F

Location of StrasbourgLocation

Historic Weather in Strasbourg — Graph

°F

Strasbourg temperature yesterday

Maximum temperature yesterday: 73 °F (at 3:30 PM)
Minimum temperature yesterday: 57 °F (at 5:00 AM)
Average temperature yesterday: 65 °F

Past Weeks' High & Low Weather Summary

 TemperatureHumidityPressure
High88 °F (May 12, 2:00 PM)100% (May 14, 2:30 AM)30.33 "Hg (May 14, 2:30 AM)
Low41 °F (May 22, 5:30 AM)26% (May 22, 7:30 PM)29.74 "Hg (May 18, 5:30 PM)
Average61 °F64%30.07 "Hg
* Reported May 10 4:00 PM — May 25 4:30 PM, Strasbourg, Weather by CustomWeather, © 2015

Note: Actual official high and low records may vary slightly from our data, if they occured in-between our weather recording intervals... More about our weather records

Advertising

Strasbourg weather history for previous 24 hours

 ConditionsComfort  
Time TempWeatherWind HumidityBarometerVisibility
4:30 PM
Mon, May 25
63 °FLight rain. Clear.9 mph73%29.95 "HgN/A
4:00 PM63 °FPassing clouds.12 mph73%29.95 "HgN/A
3:30 PM63 °FPartly sunny.14 mph68%29.95 "HgN/A
3:00 PM64 °FMild.15 mph60%29.95 "HgN/A
2:30 PM66 °FPassing clouds.17 mph60%29.95 "HgN/A
2:00 PM66 °FPassing clouds.16 mph56%29.95 "HgN/A
1:30 PM70 °FPartly sunny.12 mph46%29.95 "HgN/A
1:00 PM68 °FMild.7 mph46%29.95 "HgN/A
12:30 PM68 °FPartly sunny.6 mph49%29.98 "HgN/A
12:00 PM66 °FMostly cloudy.7 mph52%29.98 "HgN/A
11:30 AM68 °FPartly sunny.6 mph49%29.98 "HgN/A
11:00 AM68 °FPartly sunny.2 mph53%29.98 "HgN/A
10:30 AM68 °FPartly sunny.3 mph56%29.98 "HgN/A
10:00 AM64 °FBroken clouds.2 mph60%29.98 "HgN/A
9:30 AM66 °FPartly sunny.1 mph60%30.01 "HgN/A
9:00 AM64 °FPartly sunny.2 mph64%30.01 "HgN/A
8:30 AM64 °FClear.No wind68%30.01 "HgN/A
8:00 AM63 °FClear.1 mph73%30.01 "HgN/A
7:30 AM59 °FSunny.No wind82%30.01 "Hg10 mi
7:00 AM57 °FSunny.2 mph82%30.01 "Hg10 mi
6:30 AM55 °FClear.3 mph88%30.01 "Hg10 mi
5:30 AM57 °FClear.2 mph82%30.01 "Hg10 mi
5:00 AM57 °FClear.2 mph82%30.01 "Hg10 mi
4:30 AM57 °FClear.2 mph82%30.01 "Hg10 mi
4:00 AM57 °FClear.2 mph82%30.01 "Hg10 mi
3:30 AM59 °FClear.2 mph82%30.01 "Hg10 mi
3:00 AM59 °FOvercast.2 mph82%30.01 "HgN/A
2:30 AM59 °FClear.2 mph82%30.01 "Hg10 mi
2:00 AM59 °FClear.2 mph82%30.01 "Hg10 mi
1:30 AM61 °FClear.2 mph72%30.01 "Hg10 mi
1:00 AM61 °FClear.3 mph72%30.01 "Hg10 mi
12:30 AM61 °FClear.No wind77%30.04 "Hg10 mi
12:00 AM61 °FPassing clouds.3 mph77%30.04 "HgN/A
11:30 PM
Sun, May 24
63 °FClear.No wind73%30.04 "Hg10 mi
11:00 PM63 °FClear.3 mph73%30.04 "Hg10 mi
10:30 PM63 °FClear.3 mph73%30.04 "Hg10 mi
10:00 PM64 °FSunny.No wind68%30.04 "Hg10 mi
9:30 PM64 °FSunny.1 mph64%30.04 "Hg10 mi
9:00 PM64 °FSunny.2 mph64%30.04 "Hg10 mi
8:30 PM66 °FSunny.5 mph60%30.04 "Hg10 mi
8:00 PM66 °FSunny.5 mph60%30.04 "Hg10 mi
7:30 PM68 °FSunny.3 mph53%30.04 "Hg10 mi
7:00 PM68 °FSunny.No wind49%30.01 "Hg10 mi
6:30 PM68 °FMore clouds than sun.1 mph49%30.01 "HgN/A
6:00 PM68 °FOvercast.2 mph49%30.04 "HgN/A
5:30 PM70 °FPassing clouds.3 mph46%30.04 "HgN/A
5:00 PM70 °FPassing clouds.6 mph46%30.04 "HgN/A
Weather by CustomWeather, © 2015

See weather overviewHow to use our weather pages